Tracking 19903 objects as of 17-Oct-2019
HD Live streaming from Space Station
objects crossing your sky now

DELTA 1 R/B


DELTA 1 R/B is no longer on orbit
DELTA 1 R/B is classified as:


NORAD ID: 8063
Int'l Code: 1975-072B
Perigee: N/A
Apogee: N/A
Inclination: N/A
Period: N/A
Semi major axis: N/A
RCS: N/A
Launch date: August 9, 1975
Source: United States (US)
Launch site: AIR FORCE WESTERN TEST RANGE (AFWTR)
Decay date: 2017-05-20

Note: This is a ROCKET BODY
aabbcc
Your satellite tracking list
Your tracking list is empty




NASA's NSSDC Master Catalog

Two Line Element Set (TLE):
1  8063U 75072B   17140.44258545 +.12561537 -10385-5 +27636-3 0  9998
2  8063 089.0676 039.2034 0011670 162.6097 197.4527 16.45826310885611
Source of the keplerian elements: AFSPC